When you browse on this site, cookies collect data to enhance your experience and personalize the content and advertising you see.
Visit our Privacy Policy to learn more. By continuing to use the site, you agree to this use of cookies and data.
  • In Österreich
  • Länderverzeichnis
  • Für 7 Tage
  • Wassertemperatur
  • Wetterkarte
  • News
  • Widgets
  • user-avatar
    Anmelden

    Stündliche Wetter Energetik

    Heute, 20 November, Mittwoch

    Zeit Temperatur Niederschläge Wind Luftdruck Luftfeuchtigkeit
    00:00 -26°C° 0 mm 5 m/S 752 mmHg 88%
    01:00 -26°C° 0 mm 5 m/S 752 mmHg 89%
    02:00 -26°C° 0 mm 5 m/S 753 mmHg 88%
    03:00 -26°C° 0 mm 5 m/S 753 mmHg 88%
    04:00 -28°C° 0 mm 5 m/S 754 mmHg 87%
    05:00 -28°C° 0 mm 5 m/S 754 mmHg 88%
    06:00 -28°C° 0 mm 5 m/S 754 mmHg 88%
    07:00 -29°C° 0 mm 6 m/S 754 mmHg 88%
    08:00 -28°C° 0 mm 6 m/S 755 mmHg 88%
    09:00 -28°C° 0 mm 6 m/S 755 mmHg 87%
    10:00 -28°C° 0 mm 6 m/S 756 mmHg 87%
    11:00 -27°C° 0 mm 6 m/S 756 mmHg 86%
    12:00 -27°C° 0 mm 6 m/S 756 mmHg 86%
    13:00 -25°C° 0 mm 5 m/S 756 mmHg 85%
    14:00 -25°C° 0 mm 5 m/S 756 mmHg 86%
    15:00 -25°C° 0 mm 5 m/S 756 mmHg 87%
    16:00 -25°C° 0 mm 5 m/S 757 mmHg 88%
    17:00 -25°C° 0 mm 5 m/S 757 mmHg 89%
    18:00 -24°C° 0 mm 4 m/S 757 mmHg 90%
    19:00 -24°C° 0 mm 4 m/S 757 mmHg 91%
    20:00 -24°C° 0 mm 4 m/S 757 mmHg 91%
    21:00 -23°C° 0 mm 3 m/S 758 mmHg 92%
    22:00 -23°C° 0 mm 3 m/S 758 mmHg 93%
    23:00 -24°C° 0 mm 3 m/S 758 mmHg 93%

    Morgen, 21 November, Donnerstag

    Zeit Temperatur Niederschläge Wind Luftdruck Luftfeuchtigkeit
    00:00 -24°C° 0 mm 3 m/S 758 mmHg 93%
    01:00 -24°C° 0 mm 3 m/S 758 mmHg 93%
    02:00 -24°C° 0 mm 3 m/S 758 mmHg 93%
    03:00 -24°C° 0 mm 3 m/S 759 mmHg 93%
    04:00 -24°C° 0 mm 3 m/S 759 mmHg 92%
    05:00 -23°C° 0 mm 2 m/S 759 mmHg 92%
    06:00 -23°C° 0 mm 2 m/S 758 mmHg 92%
    07:00 -21°C° 0 mm 2 m/S 758 mmHg 92%
    08:00 -19°C° 0 mm 1 m/S 758 mmHg 89%
    09:00 -18°C° 0 mm 1 m/S 758 mmHg 86%
    10:00 -17°C° 0 mm 1 m/S 759 mmHg 83%
    11:00 -16°C° 0 mm 1 m/S 758 mmHg 81%
    12:00 -15°C° 0 mm 1 m/S 758 mmHg 79%
    13:00 -14°C° 0 mm 1 m/S 758 mmHg 77%
    14:00 -15°C° 0 mm 1 m/S 757 mmHg 79%
    15:00 -15°C° 0 mm 1 m/S 757 mmHg 81%
    16:00 -15°C° 0 mm 1 m/S 757 mmHg 83%
    17:00 -15°C° 0 mm 1 m/S 757 mmHg 83%
    18:00 -17°C° 0 mm 2 m/S 756 mmHg 84%
    19:00 -17°C° 0 mm 2 m/S 756 mmHg 85%
    20:00 -16°C° 0 mm 2 m/S 756 mmHg 85%
    21:00 -16°C° 0 mm 2 m/S 756 mmHg 84%
    22:00 -16°C° 0 mm 2 m/S 756 mmHg 84%
    23:00 -16°C° 0 mm 2 m/S 755 mmHg 83%

    übermorgen, 22 November, Freitag

    Zeit Temperatur Niederschläge Wind Luftdruck Luftfeuchtigkeit
    00:00 -16°C° 0 mm 2 m/S 755 mmHg 81%
    01:00 -16°C° 0 mm 2 m/S 755 mmHg 79%
    02:00 -16°C° 0 mm 2 m/S 754 mmHg 78%
    03:00 -16°C° 0 mm 2 m/S 754 mmHg 77%
    04:00 -15°C° 0 mm 2 m/S 754 mmHg 76%
    05:00 -15°C° 0 mm 2 m/S 753 mmHg 75%
    06:00 -15°C° 0 mm 2 m/S 753 mmHg 74%
    07:00 -15°C° 0 mm 2 m/S 753 mmHg 73%
    08:00 -15°C° 0 mm 2 m/S 753 mmHg 73%
    09:00 -14°C° 0 mm 2 m/S 753 mmHg 73%
    10:00 -11°C° 0 mm 1 m/S 753 mmHg 73%
    11:00 -11°C° 0 mm 1 m/S 753 mmHg 73%
    12:00 -10°C° 0 mm 1 m/S 752 mmHg 73%
    13:00 -10°C° 0 mm 1 m/S 752 mmHg 72%
    14:00 -10°C° 0 mm 1 m/S 752 mmHg 74%
    15:00 -11°C° 0 mm 1 m/S 752 mmHg 75%
    16:00 -12°C° 0 mm 1 m/S 751 mmHg 76%
    17:00 -13°C° 0 mm 1 m/S 751 mmHg 75%
    18:00 -13°C° 0 mm 0 m/S 751 mmHg 75%
    19:00 -13°C° 0 mm 0 m/S 751 mmHg 74%
    20:00 -13°C° 0 mm 0 m/S 751 mmHg 73%
    21:00 -13°C° 0 mm 0 m/S 751 mmHg 72%
    22:00 -13°C° 0 mm 0 m/S 751 mmHg 71%
    23:00 -13°C° 0 mm 0 m/S 751 mmHg 71%

    23 November, Samstag

    Zeit Temperatur Niederschläge Wind Luftdruck Luftfeuchtigkeit
    00:00 -13°C° 0 mm 0 m/S 751 mmHg 71%
    01:00 -13°C° 0 mm 0 m/S 751 mmHg 70%
    02:00 -13°C° 0 mm 0 m/S 751 mmHg 70%
    03:00 -13°C° 0 mm 0 m/S 751 mmHg 70%
    04:00 -13°C° 0 mm 0 m/S 751 mmHg 70%
    05:00 -13°C° 0 mm 0 m/S 750 mmHg 70%
    06:00 -13°C° 0 mm 0 m/S 750 mmHg 70%
    07:00 -13°C° 0 mm 0 m/S 750 mmHg 70%
    08:00 -12°C° 0 mm 0 m/S 750 mmHg 70%
    09:00 -11°C° 0 mm 1 m/S 750 mmHg 70%
    10:00 -10°C° 0 mm 1 m/S 750 mmHg 71%
    11:00 -9°C° 0 mm 1 m/S 750 mmHg 71%
    12:00 -9°C° 0 mm 1 m/S 749 mmHg 72%
    13:00 -9°C° 0 mm 2 m/S 749 mmHg 73%
    14:00 -9°C° 0 mm 2 m/S 749 mmHg 75%
    15:00 -10°C° 0 mm 2 m/S 748 mmHg 77%
    16:00 -12°C° 0 mm 3 m/S 748 mmHg 79%
    17:00 -12°C° 0 mm 3 m/S 748 mmHg 82%
    18:00 -12°C° 0 mm 3 m/S 748 mmHg 85%
    19:00 -12°C° 0 mm 3 m/S 748 mmHg 89%
    20:00 -12°C° 0 mm 3 m/S 747 mmHg 89%
    21:00 -12°C° 0 mm 3 m/S 747 mmHg 90%
    22:00 -10°C° 0 mm 3 m/S 747 mmHg 91%
    23:00 -10°C° 0 mm 2 m/S 747 mmHg 90%

    24 November, Sonntag

    Zeit Temperatur Niederschläge Wind Luftdruck Luftfeuchtigkeit
    00:00 -10°C° 0 mm 2 m/S 747 mmHg 90%
    01:00 -10°C° 0 mm 2 m/S 746 mmHg 90%
    02:00 -10°C° 0 mm 2 m/S 746 mmHg 89%
    03:00 -10°C° 0 mm 2 m/S 746 mmHg 89%
    04:00 -9°C° 0 mm 1 m/S 746 mmHg 88%
    05:00 -9°C° 0 mm 1 m/S 746 mmHg 88%
    06:00 -9°C° 0 mm 1 m/S 746 mmHg 88%
    07:00 -10°C° 0 mm 1 m/S 746 mmHg 88%
    08:00 -9°C° 0 mm 1 m/S 746 mmHg 88%
    09:00 -8°C° 0 mm 1 m/S 746 mmHg 88%
    10:00 -8°C° 0 mm 1 m/S 746 mmHg 88%
    11:00 -7°C° 0 mm 1 m/S 746 mmHg 88%
    12:00 -7°C° 0 mm 1 m/S 746 mmHg 88%
    13:00 -6°C° 0 mm 1 m/S 746 mmHg 87%
    14:00 -7°C° 0 mm 1 m/S 746 mmHg 88%
    15:00 -7°C° 0 mm 1 m/S 746 mmHg 89%
    16:00 -8°C° 0 mm 1 m/S 746 mmHg 91%
    17:00 -8°C° 0 mm 1 m/S 746 mmHg 91%
    18:00 -9°C° 0 mm 1 m/S 746 mmHg 91%
    19:00 -9°C° 0 mm 1 m/S 746 mmHg 92%
    20:00 -9°C° 0 mm 1 m/S 746 mmHg 92%
    21:00 -10°C° 0 mm 2 m/S 746 mmHg 93%
    22:00 -12°C° 0 mm 2 m/S 746 mmHg 93%
    23:00 -12°C° 0 mm 2 m/S 746 mmHg 94%

    25 November, Montag

    Zeit Temperatur Niederschläge Wind Luftdruck Luftfeuchtigkeit
    00:00 -12°C° 0 mm 2 m/S 747 mmHg 95%
    01:00 -10°C° 0 mm 2 m/S 747 mmHg 95%
    02:00 -10°C° 0 mm 2 m/S 747 mmHg 95%
    03:00 -10°C° 0 mm 2 m/S 747 mmHg 95%
    04:00 -10°C° 0 mm 2 m/S 747 mmHg 95%
    05:00 -12°C° 0 mm 2 m/S 747 mmHg 95%
    06:00 -12°C° 0 mm 2 m/S 748 mmHg 94%
    07:00 -12°C° 0 mm 2 m/S 748 mmHg 94%
    08:00 -12°C° 0 mm 2 m/S 748 mmHg 94%
    09:00 -10°C° 0 mm 2 m/S 748 mmHg 94%
    10:00 -10°C° 0 mm 2 m/S 749 mmHg 93%
    11:00 -10°C° 0 mm 2 m/S 749 mmHg 93%
    12:00 -9°C° 0 mm 2 m/S 749 mmHg 92%
    13:00 -8°C° 0 mm 2 m/S 749 mmHg 91%
    14:00 -9°C° 0 mm 2 m/S 749 mmHg 92%
    15:00 -10°C° 0 mm 2 m/S 749 mmHg 92%
    16:00 -12°C° 0 mm 2 m/S 749 mmHg 93%
    17:00 -12°C° 0 mm 2 m/S 749 mmHg 93%
    18:00 -13°C° 0 mm 2 m/S 750 mmHg 93%
    19:00 -13°C° 0 mm 2 m/S 750 mmHg 93%
    20:00 -13°C° 0 mm 2 m/S 750 mmHg 93%
    21:00 -13°C° 0 mm 2 m/S 750 mmHg 93%
    22:00 -12°C° 0 mm 1 m/S 750 mmHg 93%
    23:00 -12°C° 0 mm 1 m/S 750 mmHg 94%
    Mehr zeigen